[[{"header":{"parameterUnit":"m.s-1","parameterCategory":1,"la1":30.2991,"la2":30.254,"lo1":-89.0895,"lo2":-89.0444,"dy":0.0017,"dx":0.0017,"nx":28,"ny":28,"refTime":"2024-06-14T09:00:00:Z","depth":0,"parameterNumber":2,"parameterNumberName":"U-component_of_WINDS"},"data":[0,0,0,0,0,0,0,0,0,0,0,0,0,0,0,0,0,0,0,0,0,0,0,0,0,0,0,0,0,0,0,0,0,0,0,0,0,0,0,0,0,0,0,0,0,0,0,0,0,0,0,0,0,0,0,0,0,0,0.0028,0.0028,0,0.0069,0.0069,0.007,0.0113,0.0113,0.0114,0.0115,0.0152,0.0152,0.0152,0,0,0,0,0,0,0,0,0,0,0,0,0,-0.0017,-0.0017,0.0028,0.0028,0.0029,0.0069,0.0069,0.007,0.0113,0.0113,0.0114,0.0115,0.0152,0.0152,0.0153,0,0,0,0,0,0,0,0,0,0,0,0,0,0.0011,-0.0016,0.0028,0.0055,0.0058,0.0069,0.0069,0.007,0.0113,0.0113,0.0114,0.0115,0.0151,0.0152,0.0153,0.0138,0,0,0.0154,0.0155,0,0,0,0,0,0,0,0,0.0009,0.0012,0.0051,0.0053,0.0057,0.0087,0.0067,0.0092,0.0112,0.0092,0.0115,0.0116,0.0129,0.0132,0.0137,0.0139,0.0141,0.0155,0.0155,0.0155,0.0155,0,0,0,0,0,0,0,0.0007,0.0011,0.0044,0.0051,0.0055,0.0064,0.0069,0.0072,0.0104,0.0094,0.0097,0.0101,0.0131,0.0136,0.0138,0.0142,0.0155,0.0155,0.0155,0.0156,0.0133,0.0132,0,0,0,0,0,0,0.0002,0.0009,0.0043,0.0045,0.0035,0.0064,0.007,0.0076,0.0105,0.011,0.01,0.0103,0.0135,0.0137,0.014,0.0123,0.0155,0.0156,0.0156,0.0134,0.0133,0.0132,0,0,0,0,0,0,0.0,0.0004,0.0041,0.0028,0.0033,0.0064,0.0071,0.0076,0.0082,0.011,0.0115,0.01,0.0136,0.0139,0.0138,0.0125,0.0156,0.0157,0.0135,0.0134,0.0132,0.0091,0,0,0,0,0,0,-0.0001,0.0004,-0.0001,0.0028,0.0034,0.004,0.007,0.0076,0.0083,0.0087,0.0111,0.0116,0.0137,0.0137,0.0139,0.0127,0.0157,0.0136,0.0134,0.0133,0.0094,0.0088,0.0084,0,0,0,0,0,-0.0003,-0.0015,-0.0001,0.0003,0.0029,0.0039,0.0043,0.0068,0.0082,0.0077,0.0095,0.0115,0.0127,0.0136,0.0139,0.0127,0.0137,0.0135,0.0133,0.0096,0.0089,0.0084,0,0,0,0,0,0,-0.0047,-0.0011,0.0005,0.0002,0.0017,0.0046,0.0041,0.006,0.007,0.0073,0.0103,0.0108,0.0103,0.0115,0.0125,0.0113,0.0135,0.0133,0.0106,0.01,0.0095,0.0092,0.0158,0,0,0,0,0,-0.0057,-0.0051,-0.002,-0.0025,-0.0018,0.001,0.0015,0.0033,0.005,0.0056,0.0074,0.0088,0.0094,0.0098,0.0106,0.0096,0.0101,0.0089,0.0084,0.008,0.0077,0.0072,0.0067,0.0125,0.0125,0.0125,0,0,-0.0078,-0.0057,-0.0055,-0.0034,-0.002,-0.0015,0.0015,0.0018,0.0021,0.0056,0.0057,0.007,0.0087,0.0082,0.008,0.0092,0.0063,0.0077,0.0073,0.0073,0.0069,0.0064,0.0059,0.0123,0.0123,0.0124,0,0,-0.0114,-0.0097,-0.01,-0.0086,-0.0065,-0.0046,-0.0047,-0.002,-0.001,-0.0008,0.0018,0.0021,0.0032,0.0043,0.005,0.0019,0.0037,0.002,-0.0006,-0.0011,-0.0016,-0.002,-0.0032,-0.0037,0.0018,0.0018,0.0018,0,-0.0144,-0.0134,-0.0105,-0.0103,-0.0095,-0.0061,-0.0065,-0.0054,-0.0032,-0.0028,-0.0015,-0.0,0.0014,0.0011,0.0003,0.0008,0.0007,0.0017,-0.0017,-0.0021,-0.0024,-0.0036,-0.0041,0.0016,0.0016,0.0016,0.0017,0,-0.0172,-0.0166,-0.0171,-0.0149,-0.0141,-0.0143,-0.0115,-0.0111,-0.0093,-0.0076,-0.0076,-0.0057,-0.0046,-0.0045,-0.0028,-0.0046,-0.004,-0.0022,-0.0001,-0.0032,-0.0043,-0.0047,0.0013,0.0014,0.0014,0.0015,0,0,-0.0236,-0.0197,-0.0199,-0.0189,-0.0163,-0.0158,-0.0158,-0.0145,-0.0143,-0.0129,-0.0129,-0.012,-0.0104,-0.0096,-0.0078,-0.0083,-0.011,-0.0065,-0.0064,-0.0075,-0.013,-0.0144,-0.015,-0.0097,-0.0098,-0.0099,-0.0132,0,-0.0269,-0.0265,-0.0238,-0.0243,-0.0238,-0.0206,-0.0206,-0.0191,-0.0175,-0.017,-0.0152,-0.0147,-0.0125,-0.0121,-0.0124,-0.0106,-0.0121,-0.0103,-0.01,-0.01,-0.0106,-0.0155,-0.017,-0.0202,-0.0136,-0.0136,-0.0137,0,-0.0307,-0.0293,-0.0297,-0.027,-0.0267,-0.0268,-0.0254,-0.0248,-0.0231,-0.0219,-0.021,-0.0189,-0.0189,-0.0167,-0.0167,-0.0156,-0.0153,-0.0144,-0.0145,-0.0144,-0.0121,-0.0158,-0.0212,-0.0217,-0.0143,-0.0142,-0.0142,0,-0.0355,-0.0338,-0.0338,-0.033,-0.0299,-0.03,-0.0287,-0.0268,-0.0262,-0.0251,-0.0247,-0.0236,-0.023,-0.0223,-0.02,-0.0186,-0.0204,-0.018,-0.0195,-0.0196,-0.0202,-0.0202,-0.0257,-0.0197,-0.0197,-0.0197,-0.0197,0,-0.0395,-0.0399,-0.0359,-0.0359,-0.0363,-0.0333,-0.0338,-0.0323,-0.0306,-0.0304,-0.0276,-0.0275,-0.0244,-0.024,-0.0222,-0.0226,-0.0223,-0.0215,-0.0211,-0.0218,-0.022,-0.0217,-0.0215,-0.0198,-0.0198,-0.0198,-0.0198,0,-0.045,-0.0423,-0.0421,-0.0391,-0.0384,-0.0388,-0.0364,-0.0364,-0.0345,-0.0343,-0.0341,-0.0313,-0.0307,-0.0283,-0.0271,-0.0259,-0.0269,-0.0259,-0.0275,-0.0272,-0.0289,-0.0289,-0.0346,-0.0353,-0.0287,-0.0288,-0.0289,0,-0.0478,-0.048,-0.045,-0.0446,-0.0434,-0.0428,-0.0421,-0.0391,-0.0386,-0.0366,-0.0368,-0.0359,-0.0351,-0.0343,-0.0323,-0.0314,-0.0305,-0.0325,-0.0303,-0.0311,-0.0307,-0.0308,-0.0308,-0.0331,-0.0332,-0.0332,-0.0333,0,-0.0532,-0.0518,-0.0508,-0.0494,-0.0486,-0.0474,-0.0461,-0.0459,-0.0426,-0.0422,-0.0414,-0.0407,-0.0395,-0.0387,-0.0375,-0.0364,-0.0344,-0.034,-0.0343,-0.0352,-0.0361,-0.0358,-0.029,-0.0339,-0.0338,-0.0338,-0.0338,-0.0337,-0.0575,-0.0576,-0.0554,-0.0545,-0.0531,-0.0519,-0.0517,-0.0498,-0.0491,-0.0477,-0.046,-0.0455,-0.0438,-0.0419,-0.0409,-0.0406,-0.0395,-0.0399,-0.0401,-0.0403,-0.0407,-0.036,-0.0404,-0.0403,-0.0403,-0.0403,-0.0403,0,-0.0629,-0.0613,-0.0604,-0.0585,-0.0578,-0.0557,-0.0541,-0.0537,-0.0532,-0.0517,-0.0508,-0.05,-0.0492,-0.0471,-0.0462,-0.0463,-0.0454,-0.0462,-0.0462,-0.046,-0.0417,-0.0416,-0.047,-0.047,-0.047,-0.047,-0.047,-0.047,-0.0655,-0.0655,-0.0639,-0.0633,-0.0617,-0.061,-0.0603,-0.0592,-0.058,-0.0572,-0.0564,-0.0549,-0.0532,-0.0521,-0.0514,-0.0508,-0.0506,-0.0518,-0.0509,-0.047,-0.0463,-0.0457,-0.0456,-0.0517,-0.0517,-0.0553,-0.0553,-0.0553]},{"header":{"parameterUnit":"m.s-1","parameterCategory":1,"la1":30.2991,"la2":30.254,"lo1":-89.0895,"lo2":-89.0444,"dy":0.0017,"dx":0.0017,"nx":28,"ny":28,"refTime":"2024-06-14T09:00:00:Z","depth":0,"parameterNumber":3,"parameterNumberName":"V-component_of_WINDS"},"data":[0,0,0,0,0,0,0,0,0,0,0,0,0,0,0,0,0,0,0,0,0,0,0,0,0,0,0,0,0,0,0,0,0,0,0,0,0,0,0,0,0,0,0,0,0,0,0,0,0,0,0,0,0,0,0,0,0,0,2.1604,2.1604,0,2.1589,2.1588,2.1588,2.1558,2.1558,2.1557,2.1556,2.154,2.154,2.154,0,0,0,0,0,0,0,0,0,0,0,0,0,2.1609,2.1609,2.1604,2.1604,2.1604,2.1589,2.1588,2.1588,2.1558,2.1557,2.1557,2.1556,2.154,2.154,2.154,0,0,0,0,0,0,0,0,0,0,0,0,0,2.1601,2.1609,2.1604,2.1587,2.1585,2.1589,2.1588,2.1588,2.1558,2.1557,2.1557,2.1556,2.154,2.154,2.154,2.1559,0,0,2.1541,2.1541,0,0,0,0,0,0,0,0,2.1602,2.1601,2.159,2.1588,2.1586,2.1574,2.1584,2.1578,2.1559,2.1569,2.1556,2.1555,2.1552,2.1551,2.155,2.1558,2.1558,2.1541,2.1541,2.1541,2.1541,0,0,0,0,0,0,0,2.1602,2.1602,2.1598,2.159,2.1588,2.158,2.1578,2.1583,2.1566,2.1568,2.1565,2.1564,2.1551,2.155,2.155,2.1558,2.1541,2.1541,2.1541,2.1541,2.158,2.1581,0,0,0,0,0,0,2.1605,2.1602,2.1598,2.1597,2.1592,2.1581,2.1579,2.1579,2.1565,2.1563,2.1565,2.1563,2.155,2.155,2.1549,2.157,2.1541,2.1541,2.1541,2.158,2.1581,2.1582,0,0,0,0,0,0,2.1605,2.1605,2.1599,2.1599,2.1598,2.1582,2.1583,2.1579,2.1578,2.1563,2.156,2.1567,2.155,2.1549,2.1557,2.1569,2.1541,2.1542,2.1578,2.158,2.1581,2.1612,0,0,0,0,0,0,2.1606,2.1605,2.1612,2.16,2.1598,2.1607,2.1583,2.158,2.1579,2.1576,2.1564,2.1562,2.1549,2.1557,2.1557,2.1569,2.1542,2.1577,2.1579,2.1581,2.161,2.1614,2.1618,0,0,0,0,0,2.1606,2.1621,2.1613,2.1612,2.1606,2.1608,2.1607,2.1592,2.158,2.1586,2.1577,2.1562,2.1568,2.1558,2.1558,2.157,2.1576,2.1579,2.1581,2.1608,2.1613,2.1618,0,0,0,0,0,0,2.1635,2.1619,2.1609,2.1621,2.1616,2.1603,2.161,2.1598,2.1596,2.1594,2.1575,2.1573,2.1583,2.1578,2.1567,2.1587,2.157,2.1572,2.159,2.1595,2.16,2.16,2.1542,0,0,0,0,0,2.1643,2.1646,2.1632,2.1644,2.1642,2.1627,2.1627,2.1616,2.161,2.1607,2.1598,2.1593,2.1594,2.1595,2.1594,2.1609,2.1606,2.1617,2.1622,2.1625,2.1627,2.1634,2.1639,2.1589,2.1589,2.1588,0,0,2.1659,2.1651,2.1654,2.1649,2.1644,2.1647,2.1625,2.1629,2.1631,2.1608,2.1615,2.1609,2.1602,2.1613,2.1618,2.1609,2.164,2.1628,2.1631,2.163,2.1637,2.1642,2.1646,2.159,2.159,2.1589,0,0,2.169,2.1684,2.1693,2.1689,2.1681,2.1671,2.1674,2.1663,2.1657,2.1664,2.1647,2.165,2.1651,2.1647,2.1645,2.1676,2.1662,2.1676,2.1697,2.1705,2.1709,2.1712,2.1722,2.1726,2.1678,2.1678,2.1678,0,2.1711,2.1715,2.17,2.1705,2.1704,2.1683,2.1692,2.1689,2.1682,2.1681,2.1671,2.1673,2.1667,2.1677,2.1685,2.1684,2.1686,2.1677,2.1709,2.1713,2.1715,2.1725,2.1729,2.168,2.168,2.168,2.1679,0,2.1741,2.1744,2.1752,2.1746,2.1746,2.1753,2.1739,2.1741,2.1731,2.1722,2.1729,2.1722,2.1719,2.1721,2.1711,2.173,2.1725,2.1713,2.1694,2.1722,2.1731,2.1735,2.1682,2.1682,2.1681,2.1681,0,0,2.1788,2.1774,2.1777,2.1774,2.1765,2.1767,2.1774,2.1773,2.1774,2.1771,2.1776,2.1778,2.1767,2.1764,2.1754,2.1761,2.1785,2.1747,2.1747,2.1754,2.1806,2.1814,2.1819,2.1777,2.1777,2.1778,2.1806,0,2.1816,2.1826,2.1813,2.1827,2.1829,2.1811,2.1817,2.1812,2.1805,2.1806,2.1798,2.18,2.1785,2.1784,2.179,2.1781,2.1795,2.1779,2.1781,2.1781,2.1782,2.1824,2.1833,2.1859,2.1809,2.181,2.181,0,2.185,2.1848,2.1861,2.1852,2.1853,2.1858,2.1856,2.1857,2.1852,2.1846,2.1845,2.1832,2.1838,2.1822,2.183,2.1819,2.182,2.1816,2.1816,2.1815,2.1796,2.1823,2.1868,2.1872,2.1816,2.1815,2.1815,0,2.1882,2.1883,2.1891,2.1889,2.1879,2.1883,2.1879,2.1873,2.1873,2.1871,2.187,2.187,2.1869,2.1868,2.1856,2.1845,2.1866,2.1848,2.1861,2.1861,2.1865,2.1865,2.191,2.1867,2.1867,2.1867,2.1867,0,2.1914,2.1923,2.1905,2.191,2.192,2.1906,2.1915,2.1909,2.1904,2.1908,2.1892,2.1896,2.188,2.1882,2.1873,2.1881,2.1881,2.1877,2.1874,2.1877,2.1878,2.1876,2.1874,2.1868,2.1868,2.1868,2.1867,0,2.1951,2.194,2.1947,2.1937,2.1935,2.1942,2.1933,2.1938,2.193,2.1935,2.1935,2.1923,2.1925,2.1913,2.1913,2.1906,2.1919,2.1913,2.1921,2.1918,2.1932,2.193,2.1977,2.1982,2.1936,2.1937,2.1937,0,2.1971,2.1978,2.1968,2.197,2.1966,2.1969,2.1969,2.1955,2.1956,2.1951,2.1956,2.1957,2.1956,2.196,2.1951,2.1951,2.1945,2.1961,2.1945,2.1948,2.1944,2.1944,2.1944,2.1964,2.1965,2.1965,2.1966,0,2.2009,2.2003,2.2004,2.2003,2.2003,2.2002,2.1999,2.2001,2.1987,2.1989,2.199,2.199,2.199,2.1991,2.1989,2.1985,2.1973,2.1971,2.1974,2.1977,2.1981,2.1979,2.1929,2.197,2.197,2.1969,2.1969,2.1969,2.2038,2.2042,2.2037,2.2038,2.2035,2.2033,2.2037,2.203,2.2031,2.203,2.2022,2.2026,2.2021,2.2017,2.2015,2.2017,2.2009,2.2013,2.2014,2.2015,2.2017,2.1982,2.2017,2.2017,2.2017,2.2016,2.2016,0,2.2074,2.2069,2.2071,2.2068,2.2069,2.2059,2.2056,2.2057,2.206,2.2057,2.2057,2.206,2.2061,2.2052,2.2052,2.2056,2.2051,2.2057,2.2056,2.2055,2.2025,2.2022,2.2061,2.2061,2.2061,2.2061,2.2061,2.2061,2.2092,2.21,2.2094,2.2101,2.2096,2.2099,2.2099,2.2097,2.2094,2.2098,2.2099,2.2093,2.2088,2.2088,2.2088,2.2086,2.2086,2.2094,2.209,2.2061,2.2057,2.2053,2.205,2.2094,2.2095,2.212,2.212,2.212]}]]